CAPE
1782 1632 1005 647 612 790 869 874 778 625 532 396 318 257 263 228 174 133 85 51 22 6 2 37 210 325 436 602 577 483 546 499
1696 1727 1607 1317 440 267 240 196 167 243 308 277 222 155 72 0 0 0 0 0 0 0 0 0 0 0 0 0 114 79 430 428
1617 1524 1118 406 270 118 82 147 159 193 203 200 395 355 100 0 0 0 0 0 0 0 0 0 0 0 0 0 0 70 139 233
419 316 139 64 35 3 3 36 33 71 110 99 21 0 0 0 0 0 0 0 0 0 0 0 0 0 0 0 0 0 0 3
191 132 18 1 0 1 1 0 0 0 0 0 0 0 0 0 0 0 0 0 0 0 0 0 0 0 0 0 0 0 0 0
5 5 6 4 0 0 0 0 0 0 0 0 0 0 0 0 0 0 0 0 0 0 0 0 0 0 0 0 0 0 0 0
4 2 1 0 0 0 0 0 0 0 0 0 0 0 0 0 0 0 0 0 0 0 0 0 0 0 0 0 0 0 0 0
0 0 0 0 0 0 0 0 0 0 0 0 0 0 0 0 0 0 0 0 0 0 0 0 0 0 0 0 0 0 0 0
0 0 0 0 0 0 0 0 0 0 0 0 0 0 0 0 0 0 0 0 0 0 0 0 0 0 0 0 0 0 0 0
0 0 0 0 0 0 0 0 0 0 0 0 0 0 0 0 0 0 0 0 0 0 0 0 0 0 0 0 0 0 0 0
0 0 0 0 0 0 0 0 0 0 0 0 0 0 0 0 0 0 0 0 0 0 0 0 0 0 0 0 0 0 0 0
0 0 0 0 0 0 0 0 0 0 0 0 0 0 0 0 0 0 0 0 0 0 0 0 0 0 0 0 0 0 0 0
0 0 0 0 0 0 0 0 0 0 0 0 0 0 0 0 0 0 0 0 0 0 0 0 0 0 0 0 0 0 6 0
0 0 0 0 0 0 0 0 0 0 0 0 0 0 0 0 0 0 0 0 0 0 0 0 0 0 0 0 0 0 0 0
0 0 0 0 0 0 0 0 0 0 0 0 0 0 0 0 0 0 0 0 0 0 0 0 0 0 0 0 0 0 0 0
0 0 0 0 0 0 0 0 0 0 0 0 0 0 0 0 0 0 0 0 0 0 0 0 0 0 0 0 0 0 0 0
0 0 0 0 0 0 0 0 0 0 0 0 0 0 0 0 0 0 0 0 0 0 0 0 0 0 0 0 0 0 0 0
0 0 0 0 0 0 0 0 0 0 0 0 0 0 0 0 0 0 0 0 0 0 0 0 0 0 0 0 0 0 0 0
0 0 0 0 0 0 0 0 0 0 0 0 0 0 0 0 0 0 0 0 0 0 0 0 0 0 0 0 0 0 0 0
0 0 0 0 0 0 0 0 0 0 0 0 0 0 0 0 0 0 0 0 0 0 0 0 0 0 0 0 0 0 0 0
CIN
-1 -0 -29 -114 -124 -72 -43 -46 -97 -145 -209 -247 -271 -278 -251 -249 -256 -262 -265 -284 -303 -56 -60 -269 -131 -89 -63 -36 -51 -78 -19 -1
-25 -2 -0 -6 -136 -177 -161 -176 -151 -162 -214 -282 -311 -350 -398 -0 -0 -0 -0 -0 -0 -0 -0 -0 -0 -0 -0 -0 -99 -103 -11 -13
-5 -12 -16 -120 -171 -220 -189 -163 -156 -139 -202 -235 -165 -175 -329 -0 -0 -0 -0 -0 -0 -0 -0 -0 -0 -0 -0 -0 -0 -42 -48 -38
-103 -135 -182 -221 -280 -120 -107 -204 -187 -222 -241 -278 -143 -0 -0 -0 -0 -0 -0 -0 -0 -0 -0 -0 -0 -0 -0 -0 -0 -0 -0 -58
-167 -181 -266 -0 -0 -0 -0 -0 -0 -0 -0 -0 -0 -0 -0 -0 -0 -0 -0 -0 -0 -0 -0 -0 -0 -0 -0 -0 -0 -0 -0 -0
-0 -0 -0 -0 -0 -0 -0 -0 -0 -0 -0 -0 -0 -0 -0 -0 -0 -0 -0 -0 -0 -0 -0 -0 -0 -0 -0 -0 -0 -0 -0 -0
-0 -0 -0 -0 -0 -0 -0 -0 -0 -0 -0 -0 -0 -0 -0 -0 -0 -0 -0 -0 -0 -0 -0 -0 -0 -0 -0 -0 -0 -0 -0 -0
-0 -0 -0 -0 -0 -0 -0 -0 -0 -0 -0 -0 -0 -0 -0 -0 -0 -0 -0 -0 -0 -0 -0 -0 -0 -0 -0 -0 -0 -0 -0 -0
-0 -0 -0 -0 -0 -0 -0 -0 -0 -0 -0 -0 -0 -0 -0 -0 -0 -0 -0 -0 -0 -0 -0 -0 -0 -0 -0 -0 -0 -0 -0 -0
-0 -0 -0 -0 -0 -0 -0 -0 -0 -0 -0 -0 -0 -0 -0 -0 -0 -0 -0 -0 -0 -0 -0 -0 -0 -0 -0 -0 -0 -0 -0 -0
-0 -0 -0 -0 -0 -0 -0 -0 -0 -0 -0 -0 -0 -0 -0 -0 -0 -0 -0 -0 -0 -0 -0 -0 -0 -0 -0 -0 -0 -0 -0 -0
-0 -0 -0 -0 -0 -0 -0 -0 -0 -0 -0 -0 -0 -0 -0 -0 -0 -0 -0 -0 -0 -0 -0 -0 -0 -0 -0 -0 -0 -0 -0 -0
-0 -0 -0 -0 -0 -0 -0 -0 -0 -0 -0 -0 -0 -0 -0 -0 -0 -0 -0 -0 -0 -0 -0 -0 -0 -0 -0 -0 -0 -0 -0 -0
-0 -0 -0 -0 -0 -0 -0 -0 -0 -0 -0 -0 -0 -0 -0 -0 -0 -0 -0 -0 -0 -0 -0 -0 -0 -0 -0 -0 -0 -0 -0 -0
-0 -0 -0 -0 -0 -0 -0 -0 -0 -0 -0 -0 -0 -0 -0 -0 -0 -0 -0 -0 -0 -0 -0 -0 -0 -0 -0 -0 -0 -0 -0 -0
-0 -0 -0 -0 -0 -0 -0 -0 -0 -0 -0 -0 -0 -0 -0 -0 -0 -0 -0 -0 -0 -0 -0 -0 -0 -0 -0 -0 -0 -0 -0 -0
-0 -0 -0 -0 -0 -0 -0 -0 -0 -0 -0 -0 -0 -0 -0 -0 -0 -0 -0 -0 -0 -0 -0 -0 -0 -0 -0 -0 -0 -0 -0 -0
-0 -0 -0 -0 -0 -0 -0 -0 -0 -0 -0 -0 -0 -0 -0 -0 -0 -0 -0 -0 -0 -0 -0 -0 -0 -0 -0 -0 -0 -0 -0 -0
-0 -0 -0 -0 -0 -0 -0 -0 -0 -0 -0 -0 -0 -0 -0 -0 -0 -0 -0 -0 -0 -0 -0 -0 -0 -0 -0 -0 -0 -0 -0 -0
-0 -0 -0 -0 -0 -0 -0 -0 -0 -0 -0 -0 -0 -0 -0 -0 -0 -0 -0 -0 -0 -0 -0 -0 -0 -0 -0 -0 -0 -0 -0 -0
Wind_Speed
12 14 14 15 15 16 16 15 14 13 13 14 16 17 18 19 21 22 22 23 24 24 25 25 25 25 25 23 22 21 20 20
11 13 13 15 16 16 16 16 15 14 14 14 15 17 18 19 20 22 22 23 24 25 26 26 25 25 26 27 25 25 23 23
11 12 13 14 15 15 17 17 15 14 15 17 17 18 19 20 21 22 23 24 25 26 26 27 27 24 27 27 26 26 27 26
16 13 15 15 16 15 16 17 16 16 16 18 20 20 21 21 22 23 24 25 25 26 27 27 27 26 27 25 26 27 28 28
16 15 14 15 16 16 17 18 18 17 19 19 22 22 23 21 23 23 24 25 26 26 28 28 28 28 28 27 26 23 27 27
17 16 14 14 15 15 16 18 19 19 20 20 21 22 23 23 23 24 25 25 26 27 28 28 29 28 28 28 28 27 26 25
17 17 16 16 15 15 15 17 19 20 21 22 22 22 23 23 24 25 25 26 27 28 29 30 30 30 30 30 30 28 27 25
20 17 17 16 14 16 17 18 19 21 22 22 23 23 24 24 25 26 27 28 28 29 30 30 30 30 30 30 29 27 26 26
17 18 18 17 15 16 18 19 20 21 22 24 24 25 25 26 27 28 29 29 30 30 31 30 30 30 30 28 26 25 26 26
18 18 19 18 15 16 17 18 20 21 22 23 25 26 27 27 28 29 30 30 31 31 32 32 31 31 30 28 25 24 26 26
19 18 18 18 17 17 18 20 21 22 23 24 26 27 27 27 28 29 30 30 31 32 31 32 32 32 31 29 26 25 24 26
19 18 17 16 16 17 18 20 21 22 23 25 26 27 27 27 28 30 29 30 30 32 31 32 31 32 31 31 25 25 22 28
19 18 18 16 16 17 18 19 20 22 24 25 26 26 27 28 29 29 29 29 31 31 31 31 31 33 32 34 27 26 20 33
17 18 16 16 16 17 18 19 20 21 23 25 26 26 27 28 29 29 29 29 30 31 32 33 31 33 34 33 30 28 27 38
13 15 16 16 16 17 18 18 19 21 22 23 25 26 27 28 28 29 29 29 30 32 33 33 34 33 33 31 31 30 39 23
14 15 16 16 15 16 16 18 19 20 21 22 23 26 27 28 28 28 29 29 31 32 33 33 33 34 33 31 30 33 34 37
13 15 15 15 16 16 16 17 18 19 20 21 22 24 27 28 28 28 29 29 31 32 33 33 32 33 33 34 33 32 33 38
12 13 15 15 15 16 16 16 17 19 20 21 23 24 26 27 27 28 29 30 31 32 33 32 32 32 32 32 33 35 36 38
10 11 13 14 15 16 17 17 19 20 21 22 23 24 25 26 27 27 29 30 31 32 32 31 32 33 33 33 33 33 33 35
8 10 12 14 15 16 17 17 19 20 21 21 22 23 23 24 25 26 28 30 31 32 31 31 32 32 33 33 34 34 34 35
Wind_Direction
28 40 38 31 24 19 16 16 11 6 14 15 11 7 5 3 358 355 354 353 352 349 346 346 344 343 340 338 336 336 334 333
32 35 20 23 18 16 19 14 14 359 356 7 9 10 7 5 5 359 356 354 353 353 350 349 349 346 339 333 331 328 328 327
19 28 20 20 18 13 12 20 21 356 350 359 0 355 356 358 0 359 356 353 351 349 347 346 342 345 343 338 333 327 323 320
17 14 36 41 24 15 30 10 356 340 343 347 352 356 354 351 351 350 353 348 351 355 348 350 345 342 341 349 343 331 324 320
32 38 29 25 39 21 358 32 60 37 359 355 349 355 1 354 354 350 346 347 343 349 349 348 344 342 343 341 347 357 336 335
16 24 24 25 38 25 18 26 26 34 16 11 8 8 7 7 359 1 355 351 345 349 349 347 347 344 343 342 342 342 344 343
8 30 23 34 28 29 25 26 23 28 23 18 18 17 13 8 3 358 355 353 350 347 345 343 341 339 338 336 335 335 336 339
28 33 31 37 26 37 37 33 34 30 27 22 18 14 11 8 3 358 356 352 350 348 346 343 341 339 339 339 339 342 341 338
41 42 39 44 39 29 36 40 35 28 23 15 12 11 10 4 1 356 352 350 348 347 345 344 343 343 342 344 344 346 343 343
45 45 53 57 37 30 30 30 28 23 16 12 7 9 4 1 357 352 349 349 348 345 344 342 342 342 340 344 346 346 342 341
51 50 51 53 43 29 25 24 23 19 13 8 4 5 4 2 359 357 356 353 350 347 344 341 339 338 336 338 342 344 343 340
60 55 53 41 30 25 28 24 21 15 11 8 6 5 5 5 4 360 358 356 354 349 343 340 342 340 338 336 339 342 346 340
69 67 72 51 34 28 29 24 19 15 14 12 11 10 9 4 2 359 357 358 355 355 350 346 345 342 337 332 336 335 337 326
68 72 61 46 38 31 28 25 23 22 19 15 13 10 8 8 6 4 2 359 356 352 348 344 343 342 336 332 332 336 336 321
61 52 49 43 41 36 34 34 30 24 23 20 14 12 11 9 7 2 358 357 354 351 347 343 339 341 340 339 330 327 317 338
59 51 42 44 42 37 35 29 27 25 22 19 18 13 9 6 5 2 359 358 354 349 344 342 341 338 339 340 337 329 324 317
53 47 42 41 37 38 35 30 28 21 20 18 16 11 6 3 3 3 1 359 355 349 344 343 342 340 340 338 337 335 332 324
43 37 34 36 35 33 29 28 22 17 14 12 10 7 5 4 4 2 360 355 352 348 343 342 342 342 341 341 338 334 330 327
37 38 31 29 27 24 23 20 17 14 11 9 6 5 4 4 4 3 360 355 351 349 347 344 342 341 341 340 340 338 337 334
26 24 22 24 23 18 17 15 13 11 9 8 6 6 6 6 5 3 359 355 351 349 348 346 343 342 340 340 338 338 337 336